CZ-6A DEB, 64655

Orbit data source: Space-Track

CZ-6A DEB, 64655 is space debris in LEO originally from a launch on Tue, 06 Aug 2024 UTC launched from the Taiyaun Space Center, China (TSC). Debris objects in space refer to the collection of defunct objects orbiting the Earth. Examples of debris include non-operational satellites, rocket bodies, and fragments generated from explosions, collisions, or faulty payload assembly.

Loading next visibility...
Identifier
64655, 2024-140AEV
Orbit
LEO
Country
Flag of CNCN / PRC
Related business
Manufacturer
SAST
Mission
Spacecraft
Bus & Motor
Unknown
Mass
Unknown
Launch date (UTC)
2024-08-06 (2 years ago)
Launch vehicle
Unknown
Launch site
Taiyaun Space Center, China (TSC)
Object type
Payload
Rocket body
Debris
Shape & HBR
Unknown shape, 0.1 m
Radar Cross Section
Small (<0.1 m²)

Expand to show TLE details & history
Last TLE update: 16 hours ago

TLE from 16 hours ago
0 CZ-6A DEB
1 64655U 24140AEV 26171.29341058  .00003755  00000-0  13598-2 0  9994
2 64655  89.1174 282.7569 0075077 211.8911 147.7730 14.31724131 84981
Epoch: 2026-06-20T07:02Z
TLE epoch observation values (Epoch: 2026-06-20T07:02:30.674Z)
Latitude
-0.00003°
Longitude
-91.38102°
Altitude
834.667 km
Speed
7.412 km/s
True Right ascension
18h 51m 01s
True Declination
0° 00' 00"
Sunlit
Object was in full shadow at epoch
Visualization orbit readout
Latitude
Unknown
Longitude
Unknown
Altitude
Unknown
Speed
Unknown
Apparent Right ascension
Unknown
Apparent Declination
Unknown
Sunlit
N/A
Visualization observer readout
Local Sidereal Time
10:19:51
Azimuth
Unknown
Elevation
Unknown
Doppler factor
Unknown
Orbital elements
Apogee altitude
836.67 km
Perigee altitude
729.144 km
Semi-major axis
7,161.044 km
Eccentricity
0.00751
Inclination
89.1174°
RAAN
282.7569°
Arg. of periapsis
211.8911°
True anomaly
148.22817°
Mean anomaly
147.773°
Eccentric anomaly
148.00094°
Mean motion
3.58161 °/min
Orbital period
100.51 mins
BSTAR
0.0013598
Loading maneuver chart data...
Computing Atmospheric mass density...
Loading historical data...
Loading historical data...
Loading historical data...
Loading historical data...
Loading historical data...
Loading historical data...
Loading historical data...

Documentation

Showing up to 5 results
|